Year,Month,Day,Hour,Minute,Value (Times are PST for windspeed in km/hr)
2015,08,31,00,00,7.90
2015,08,31,00,01,4.80
2015,08,31,00,02,5.70
2015,08,31,00,03,5.60
2015,08,31,00,04,6.20
2015,08,31,00,05,7.70
2015,08,31,00,06,7.40
2015,08,31,00,07,7.50
2015,08,31,00,08,10.80
2015,08,31,00,09,9.20
2015,08,31,00,10,7.60
2015,08,31,00,11,9.40
2015,08,31,00,12,7.60
2015,08,31,00,13,10.40
2015,08,31,00,14,8.50
2015,08,31,00,15,7.90
2015,08,31,00,16,7.90
2015,08,31,00,17,7.40
2015,08,31,00,18,8.20
2015,08,31,00,19,8.50
2015,08,31,00,20,9.70
2015,08,31,00,21,9.00
2015,08,31,00,22,8.10
2015,08,31,00,23,8.60
2015,08,31,00,24,9.20
2015,08,31,00,25,9.70
2015,08,31,00,26,8.90
2015,08,31,00,27,8.30
2015,08,31,00,28,7.80
2015,08,31,00,29,6.50
2015,08,31,00,30,4.90
2015,08,31,00,31,5.00
2015,08,31,00,32,6.10
2015,08,31,00,33,6.70
2015,08,31,00,34,7.00
2015,08,31,00,35,6.90
2015,08,31,00,36,8.20
2015,08,31,00,37,8.40
2015,08,31,00,38,7.60
2015,08,31,00,39,8.40
2015,08,31,00,40,8.20
2015,08,31,00,41,8.30
2015,08,31,00,42,9.50
2015,08,31,00,43,10.40
2015,08,31,00,44,8.90
2015,08,31,00,45,8.10
2015,08,31,00,46,7.70
2015,08,31,00,47,8.60
2015,08,31,00,48,10.10
2015,08,31,00,49,10.60
2015,08,31,00,50,11.30
2015,08,31,00,51,10.40
2015,08,31,00,52,10.40
2015,08,31,00,53,10.40
2015,08,31,00,54,10.10
2015,08,31,00,55,9.30
2015,08,31,00,56,8.60
2015,08,31,00,57,9.60
2015,08,31,00,58,10.50
2015,08,31,00,59,12.10
2015,08,31,01,00,12.00
2015,08,31,01,01,12.00
2015,08,31,01,02,11.30
2015,08,31,01,03,10.50
2015,08,31,01,04,10.40
2015,08,31,01,05,10.70
2015,08,31,01,06,11.00
2015,08,31,01,07,10.00
2015,08,31,01,08,10.80
2015,08,31,01,09,10.00
2015,08,31,01,10,10.20
2015,08,31,01,11,10.90
2015,08,31,01,12,11.30
2015,08,31,01,13,11.80
2015,08,31,01,14,11.50
2015,08,31,01,15,11.50
2015,08,31,01,16,11.40
2015,08,31,01,17,11.60
2015,08,31,01,18,11.60
2015,08,31,01,19,11.10
2015,08,31,01,20,11.20
2015,08,31,01,21,11.00
2015,08,31,01,22,9.70
2015,08,31,01,23,10.40
2015,08,31,01,24,11.00
2015,08,31,01,25,11.40
2015,08,31,01,26,12.40
2015,08,31,01,27,13.80
2015,08,31,01,28,12.70
2015,08,31,01,29,12.40
2015,08,31,01,30,12.20
2015,08,31,01,31,13.40
2015,08,31,01,32,14.20
2015,08,31,01,33,13.00
2015,08,31,01,34,12.70
2015,08,31,01,35,12.10
2015,08,31,01,36,10.30
2015,08,31,01,37,10.50
2015,08,31,01,38,10.10
2015,08,31,01,39,10.20
2015,08,31,01,40,10.70
2015,08,31,01,41,11.30
2015,08,31,01,42,12.30
2015,08,31,01,43,11.30
2015,08,31,01,44,9.10
2015,08,31,01,45,8.30
2015,08,31,01,46,8.90
2015,08,31,01,47,8.80
2015,08,31,01,48,10.10
2015,08,31,01,49,9.30
2015,08,31,01,50,10.50
2015,08,31,01,51,10.80
2015,08,31,01,52,12.00
2015,08,31,01,53,11.70
2015,08,31,01,54,11.80
2015,08,31,01,55,10.60
2015,08,31,01,56,10.30
2015,08,31,01,57,8.40
2015,08,31,01,58,7.40
2015,08,31,01,59,7.80
2015,08,31,02,00,7.90
2015,08,31,02,01,6.70
2015,08,31,02,02,5.10
2015,08,31,02,03,4.80
2015,08,31,02,04,4.70
2015,08,31,02,05,5.30
2015,08,31,02,06,6.70
2015,08,31,02,07,7.40
2015,08,31,02,08,7.10
2015,08,31,02,09,7.20
2015,08,31,02,10,8.20
2015,08,31,02,11,9.10
2015,08,31,02,12,10.50
2015,08,31,02,13,10.80
2015,08,31,02,14,10.40
2015,08,31,02,15,10.30
2015,08,31,02,16,10.60
2015,08,31,02,17,11.50
2015,08,31,02,18,11.80
2015,08,31,02,19,11.30
2015,08,31,02,20,11.30
2015,08,31,02,21,10.30
2015,08,31,02,22,10.10
2015,08,31,02,23,9.50
2015,08,31,02,24,9.50
2015,08,31,02,25,10.30
2015,08,31,02,26,9.20
2015,08,31,02,27,8.10
2015,08,31,02,28,7.90
2015,08,31,02,29,7.20
2015,08,31,02,30,7.50
2015,08,31,02,31,7.70
2015,08,31,02,32,8.40
2015,08,31,02,33,8.00
2015,08,31,02,34,7.50
2015,08,31,02,35,6.80
2015,08,31,02,36,6.90
2015,08,31,02,37,8.10
2015,08,31,02,38,8.10
2015,08,31,02,39,9.20
2015,08,31,02,40,10.20
2015,08,31,02,41,10.30
2015,08,31,02,42,10.90
2015,08,31,02,43,15.30
2015,08,31,02,44,13.80
2015,08,31,02,45,11.70
2015,08,31,02,46,11.80
2015,08,31,02,47,12.70
2015,08,31,02,48,13.80
2015,08,31,02,49,7.30
2015,08,31,02,50,6.40
2015,08,31,02,51,4.70
2015,08,31,02,52,3.10
2015,08,31,02,53,0.70
2015,08,31,02,54,0.00
2015,08,31,02,55,2.40
2015,08,31,02,56,2.40
2015,08,31,02,57,4.80
2015,08,31,02,58,4.70
2015,08,31,02,59,3.20
2015,08,31,03,00,0.90
2015,08,31,03,01,0.00
2015,08,31,03,02,0.00
2015,08,31,03,03,0.00
2015,08,31,03,04,2.70
2015,08,31,03,05,2.70
2015,08,31,03,06,0.50
2015,08,31,03,07,0.00
2015,08,31,03,08,4.00
2015,08,31,03,09,6.30
2015,08,31,03,10,6.80
2015,08,31,03,11,8.10
2015,08,31,03,12,9.80
2015,08,31,03,13,7.30
2015,08,31,03,14,6.50
2015,08,31,03,15,8.00
2015,08,31,03,16,6.80
2015,08,31,03,17,6.60
2015,08,31,03,18,6.00
2015,08,31,03,19,5.70
2015,08,31,03,20,5.40
2015,08,31,03,21,4.80
2015,08,31,03,22,6.00
2015,08,31,03,23,8.10
2015,08,31,03,24,6.70
2015,08,31,03,25,5.10
2015,08,31,03,26,4.60
2015,08,31,03,27,4.90
2015,08,31,03,28,4.20
2015,08,31,03,29,3.40
2015,08,31,03,30,2.60
2015,08,31,03,31,3.50
2015,08,31,03,32,3.90
2015,08,31,03,33,3.10
2015,08,31,03,34,5.60
2015,08,31,03,35,6.80
2015,08,31,03,36,8.10
2015,08,31,03,37,9.30
2015,08,31,03,38,10.30
2015,08,31,03,39,9.90
2015,08,31,03,40,10.10
2015,08,31,03,41,9.50
2015,08,31,03,42,8.50
2015,08,31,03,43,7.70
2015,08,31,03,44,8.60
2015,08,31,03,45,8.70
2015,08,31,03,46,9.60
2015,08,31,03,47,10.00
2015,08,31,03,48,10.80
2015,08,31,03,49,10.50
2015,08,31,03,50,11.10
2015,08,31,03,51,13.00
2015,08,31,03,52,13.80
2015,08,31,03,53,13.30
2015,08,31,03,54,12.40
2015,08,31,03,55,12.00
2015,08,31,03,56,11.90
2015,08,31,03,57,12.60
2015,08,31,03,58,13.90
2015,08,31,03,59,14.60
2015,08,31,04,00,15.90
2015,08,31,04,01,16.30
2015,08,31,04,02,15.30
2015,08,31,04,03,14.60
2015,08,31,04,04,14.40
2015,08,31,04,05,14.70
2015,08,31,04,06,15.80
2015,08,31,04,07,17.00
2015,08,31,04,08,19.20
2015,08,31,04,09,21.80
2015,08,31,04,10,21.70
2015,08,31,04,11,21.50
2015,08,31,04,12,21.80
2015,08,31,04,13,20.80
2015,08,31,04,14,18.00
2015,08,31,04,15,16.20
2015,08,31,04,16,16.10
2015,08,31,04,17,16.10
2015,08,31,04,18,16.10
2015,08,31,04,19,16.10
2015,08,31,04,20,16.10
2015,08,31,04,21,15.00
2015,08,31,04,22,14.70
2015,08,31,04,23,14.90
2015,08,31,04,24,15.40
2015,08,31,04,25,15.40
2015,08,31,04,26,16.10
2015,08,31,04,27,17.20
2015,08,31,04,28,16.30
2015,08,31,04,29,15.60
2015,08,31,04,30,14.30
2015,08,31,04,31,12.80
2015,08,31,04,32,12.00
2015,08,31,04,33,11.80
2015,08,31,04,34,11.40
2015,08,31,04,35,11.40
2015,08,31,04,36,13.00
2015,08,31,04,37,13.40
2015,08,31,04,38,13.10
2015,08,31,04,39,13.20
2015,08,31,04,40,13.60
2015,08,31,04,41,13.80
2015,08,31,04,42,13.40
2015,08,31,04,43,13.80
2015,08,31,04,44,13.40
2015,08,31,04,45,13.80
2015,08,31,04,46,14.30
2015,08,31,04,47,13.40
2015,08,31,04,48,12.80
2015,08,31,04,49,12.60
2015,08,31,04,50,13.20
2015,08,31,04,51,13.20
2015,08,31,04,52,13.00
2015,08,31,04,53,12.70
2015,08,31,04,54,12.10
2015,08,31,04,55,11.80
2015,08,31,04,56,12.30
2015,08,31,04,57,12.30
2015,08,31,04,58,13.30
2015,08,31,04,59,13.40
2015,08,31,05,00,13.80
2015,08,31,05,01,14.00
2015,08,31,05,02,13.60
2015,08,31,05,03,13.10
2015,08,31,05,04,13.00
2015,08,31,05,05,12.60
2015,08,31,05,06,13.00
2015,08,31,05,07,13.30
2015,08,31,05,08,12.10
2015,08,31,05,09,11.70
2015,08,31,05,10,12.00
2015,08,31,05,11,11.30
2015,08,31,05,12,11.10
2015,08,31,05,13,11.50
2015,08,31,05,14,12.40
2015,08,31,05,15,11.40
2015,08,31,05,16,11.00
2015,08,31,05,17,10.30
2015,08,31,05,18,10.20
2015,08,31,05,19,10.40
2015,08,31,05,20,10.80
2015,08,31,05,21,10.40
2015,08,31,05,22,10.90
2015,08,31,05,23,11.30
2015,08,31,05,24,11.70
2015,08,31,05,25,11.40
2015,08,31,05,26,11.40
2015,08,31,05,27,11.50
2015,08,31,05,28,11.70
2015,08,31,05,29,12.50
2015,08,31,05,30,12.00
2015,08,31,05,31,11.80
2015,08,31,05,32,12.70
2015,08,31,05,33,13.00
2015,08,31,05,34,12.80
2015,08,31,05,35,12.20
2015,08,31,05,36,12.50
2015,08,31,05,37,13.30
2015,08,31,05,38,13.10
2015,08,31,05,39,12.20
2015,08,31,05,40,11.40
2015,08,31,05,41,12.00
2015,08,31,05,42,11.70
2015,08,31,05,43,9.80
2015,08,31,05,44,10.20
2015,08,31,05,45,11.30
2015,08,31,05,46,14.00
2015,08,31,05,47,15.40
2015,08,31,05,48,15.00
2015,08,31,05,49,15.40
2015,08,31,05,50,15.20
2015,08,31,05,51,15.40
2015,08,31,05,52,14.80
2015,08,31,05,53,13.80
2015,08,31,05,54,13.60
2015,08,31,05,55,13.30
2015,08,31,05,56,14.60
2015,08,31,05,57,14.60
2015,08,31,05,58,14.20
2015,08,31,05,59,14.30
2015,08,31,06,00,14.20
2015,08,31,06,01,14.10
2015,08,31,06,02,13.80
2015,08,31,06,03,13.00
2015,08,31,06,04,11.30
2015,08,31,06,05,11.50
2015,08,31,06,06,11.90
2015,08,31,06,07,12.50
2015,08,31,06,08,11.80
2015,08,31,06,09,12.90
2015,08,31,06,10,12.30
2015,08,31,06,11,10.10
2015,08,31,06,12,11.30
2015,08,31,06,13,11.30
2015,08,31,06,14,8.60
2015,08,31,06,15,8.10
2015,08,31,06,16,8.10
2015,08,31,06,17,10.30
2015,08,31,06,18,8.60
2015,08,31,06,19,7.90
2015,08,31,06,20,8.70
2015,08,31,06,21,7.80
2015,08,31,06,22,6.40
2015,08,31,06,23,5.20
2015,08,31,06,24,5.10
2015,08,31,06,25,3.90
2015,08,31,06,26,3.50
2015,08,31,06,27,1.40
2015,08,31,06,28,0.10
2015,08,31,06,29,0.00
2015,08,31,06,30,1.80
2015,08,31,06,31,2.40
2015,08,31,06,32,0.60
2015,08,31,06,33,0.00
2015,08,31,06,34,0.00
2015,08,31,06,35,0.00
2015,08,31,06,36,0.00
2015,08,31,06,37,0.00
2015,08,31,06,38,0.00
2015,08,31,06,39,6.70
2015,08,31,06,40,7.30
2015,08,31,06,41,2.10
2015,08,31,06,42,4.80
2015,08,31,06,43,5.60
2015,08,31,06,44,8.70
2015,08,31,06,45,5.10
2015,08,31,06,46,2.50
2015,08,31,06,47,0.10
2015,08,31,06,48,1.40
2015,08,31,06,49,6.80
2015,08,31,06,50,9.70
2015,08,31,06,51,9.50
2015,08,31,06,52,9.80
2015,08,31,06,53,7.20
2015,08,31,06,54,10.30
2015,08,31,06,55,11.30
2015,08,31,06,56,10.60
2015,08,31,06,57,10.70
2015,08,31,06,58,9.70
2015,08,31,06,59,10.50
2015,08,31,07,00,12.20
2015,08,31,07,01,13.00
2015,08,31,07,02,10.20
2015,08,31,07,03,12.30
2015,08,31,07,04,13.80
2015,08,31,07,05,14.20
2015,08,31,07,06,15.30
2015,08,31,07,07,15.30
2015,08,31,07,08,14.90
2015,08,31,07,09,15.80
2015,08,31,07,10,14.60
2015,08,31,07,11,16.90
2015,08,31,07,12,16.90
2015,08,31,07,13,16.20
2015,08,31,07,14,15.30
2015,08,31,07,15,16.70
2015,08,31,07,16,17.80
2015,08,31,07,17,19.40
2015,08,31,07,18,19.50
2015,08,31,07,19,20.10
2015,08,31,07,20,21.10
2015,08,31,07,21,21.50
2015,08,31,07,22,20.80
2015,08,31,07,23,21.90
2015,08,31,07,24,22.90
2015,08,31,07,25,23.60
2015,08,31,07,26,22.80
2015,08,31,07,27,21.50
2015,08,31,07,28,21.60
2015,08,31,07,29,20.90
2015,08,31,07,30,21.20
2015,08,31,07,31,21.50
2015,08,31,07,32,18.90
2015,08,31,07,33,18.80
2015,08,31,07,34,17.30
2015,08,31,07,35,21.50
2015,08,31,07,36,22.20
2015,08,31,07,37,22.50
2015,08,31,07,38,21.30
2015,08,31,07,39,20.20
2015,08,31,07,40,20.00
2015,08,31,07,41,18.70
2015,08,31,07,42,19.40
2015,08,31,07,43,17.90
2015,08,31,07,44,20.90
2015,08,31,07,45,19.20
2015,08,31,07,46,18.40
2015,08,31,07,47,17.30
2015,08,31,07,48,18.50
2015,08,31,07,49,19.10
2015,08,31,07,50,21.60
2015,08,31,07,51,21.20
2015,08,31,07,52,23.20
2015,08,31,07,53,24.70
2015,08,31,07,54,25.30
2015,08,31,07,55,27.70
2015,08,31,07,56,22.70
2015,08,31,07,57,24.10
2015,08,31,07,58,21.40
2015,08,31,07,59,24.20
2015,08,31,08,00,25.90
2015,08,31,08,01,25.70
2015,08,31,08,02,26.90
2015,08,31,08,03,23.80
2015,08,31,08,04,30.00
2015,08,31,08,05,24.90
2015,08,31,08,06,24.10
2015,08,31,08,07,26.10
2015,08,31,08,08,23.10
2015,08,31,08,09,22.50
2015,08,31,08,10,17.60
2015,08,31,08,11,18.70
2015,08,31,08,12,20.20
2015,08,31,08,13,20.80
2015,08,31,08,14,13.50
2015,08,31,08,15,10.50
2015,08,31,08,16,14.80
2015,08,31,08,17,14.80
2015,08,31,08,18,15.80
2015,08,31,08,19,18.80
2015,08,31,08,20,23.00
2015,08,31,08,21,24.50
2015,08,31,08,22,27.30
2015,08,31,08,23,27.50
2015,08,31,08,24,27.30
2015,08,31,08,25,24.00
2015,08,31,08,26,19.90
2015,08,31,08,27,18.90
2015,08,31,08,28,16.50
2015,08,31,08,29,14.60
2015,08,31,08,30,12.40
2015,08,31,08,31,12.80
2015,08,31,08,32,18.30
2015,08,31,08,33,20.80
2015,08,31,08,34,20.40
2015,08,31,08,35,20.30
2015,08,31,08,36,17.90
2015,08,31,08,37,16.80
2015,08,31,08,38,15.90
2015,08,31,08,39,15.50
2015,08,31,08,40,16.30
2015,08,31,08,41,15.60
2015,08,31,08,42,15.60
2015,08,31,08,43,14.00
2015,08,31,08,44,15.40
2015,08,31,08,45,15.40
2015,08,31,08,46,16.10
2015,08,31,08,47,17.00
2015,08,31,08,48,17.80
2015,08,31,08,49,18.30
2015,08,31,08,50,16.20
2015,08,31,08,51,13.40
2015,08,31,08,52,10.30
2015,08,31,08,53,7.20
2015,08,31,08,54,3.90
2015,08,31,08,55,2.90
2015,08,31,08,56,4.70
2015,08,31,08,57,6.00
2015,08,31,08,58,8.10
2015,08,31,08,59,8.90
2015,08,31,09,00,13.60
2015,08,31,09,01,15.90
2015,08,31,09,02,17.40
2015,08,31,09,03,16.60
2015,08,31,09,04,19.10
2015,08,31,09,05,20.90
2015,08,31,09,06,21.50
2015,08,31,09,07,21.30
2015,08,31,09,08,23.30
2015,08,31,09,09,23.00
2015,08,31,09,10,21.70
2015,08,31,09,11,20.50
2015,08,31,09,12,20.50
2015,08,31,09,13,19.80
2015,08,31,09,14,18.80
2015,08,31,09,15,17.10
2015,08,31,09,16,16.40
2015,08,31,09,17,16.40
2015,08,31,09,18,17.90
2015,08,31,09,19,18.10
2015,08,31,09,20,17.60
2015,08,31,09,21,17.90
2015,08,31,09,22,17.90
2015,08,31,09,23,18.20
2015,08,31,09,24,17.90
2015,08,31,09,25,16.90
2015,08,31,09,26,15.60
2015,08,31,09,27,16.90
2015,08,31,09,28,17.70
2015,08,31,09,29,18.40
2015,08,31,09,30,17.40
2015,08,31,09,31,16.30
2015,08,31,09,32,17.10
2015,08,31,09,33,16.80
2015,08,31,09,34,14.80
2015,08,31,09,35,15.40
2015,08,31,09,36,15.10
2015,08,31,09,37,14.90
2015,08,31,09,38,14.10
2015,08,31,09,39,13.80
2015,08,31,09,40,11.60
2015,08,31,09,41,10.50
2015,08,31,09,42,9.20
2015,08,31,09,43,9.30
2015,08,31,09,44,11.40
2015,08,31,09,45,10.00
2015,08,31,09,46,9.10
2015,08,31,09,47,8.50
2015,08,31,09,48,9.30
2015,08,31,09,49,8.50
2015,08,31,09,50,7.70
2015,08,31,09,51,8.10
2015,08,31,09,52,9.20
2015,08,31,09,53,8.80
2015,08,31,09,54,7.00
2015,08,31,09,55,4.70
2015,08,31,09,56,4.90
2015,08,31,09,57,4.50
2015,08,31,09,58,5.50
2015,08,31,09,59,6.10
2015,08,31,10,00,5.50
2015,08,31,10,01,5.30
2015,08,31,10,02,5.10
2015,08,31,10,03,4.30
2015,08,31,10,04,3.70
2015,08,31,10,05,3.10
2015,08,31,10,06,3.00
2015,08,31,10,07,4.10
2015,08,31,10,08,5.10
2015,08,31,10,09,5.50
2015,08,31,10,10,8.00
2015,08,31,10,11,8.50
2015,08,31,10,12,7.40
2015,08,31,10,13,8.10
2015,08,31,10,14,8.20
2015,08,31,10,15,7.70
2015,08,31,10,16,5.60
2015,08,31,10,17,5.30
2015,08,31,10,18,5.40
2015,08,31,10,19,5.60
2015,08,31,10,20,6.00
2015,08,31,10,21,4.80
2015,08,31,10,22,4.80
2015,08,31,10,23,5.70
2015,08,31,10,24,5.10
2015,08,31,10,25,5.20
2015,08,31,10,26,6.10
2015,08,31,10,27,6.50
2015,08,31,10,28,6.70
2015,08,31,10,29,6.80
2015,08,31,10,30,6.00
2015,08,31,10,31,5.80
2015,08,31,10,32,7.00
2015,08,31,10,33,6.90
2015,08,31,10,34,7.30
2015,08,31,10,35,7.20
2015,08,31,10,36,7.60
2015,08,31,10,37,7.70
2015,08,31,10,38,6.70
2015,08,31,10,39,5.60
2015,08,31,10,40,4.80
2015,08,31,10,41,4.00
2015,08,31,10,42,2.90
2015,08,31,10,43,2.60
2015,08,31,10,44,3.00
2015,08,31,10,45,4.00
2015,08,31,10,46,5.60
2015,08,31,10,47,6.10
2015,08,31,10,48,7.40
2015,08,31,10,49,7.20
2015,08,31,10,50,7.10
2015,08,31,10,51,7.10
2015,08,31,10,52,8.00
2015,08,31,10,53,8.10
2015,08,31,10,54,8.60
2015,08,31,10,55,8.40
2015,08,31,10,56,7.80
2015,08,31,10,57,7.60
2015,08,31,10,58,7.80
2015,08,31,10,59,7.40
2015,08,31,11,00,8.10
2015,08,31,11,01,7.60
2015,08,31,11,02,8.40
2015,08,31,11,03,10.10
2015,08,31,11,04,10.40
2015,08,31,11,05,10.00
2015,08,31,11,06,8.70
2015,08,31,11,07,8.00
2015,08,31,11,08,6.80
2015,08,31,11,09,5.60
2015,08,31,11,10,5.10
2015,08,31,11,11,5.60
2015,08,31,11,12,6.60
2015,08,31,11,13,7.10
2015,08,31,11,14,7.30
2015,08,31,11,15,6.50
2015,08,31,11,16,5.70
2015,08,31,11,17,6.10
2015,08,31,11,18,6.10
2015,08,31,11,19,4.60
2015,08,31,11,20,5.40
2015,08,31,11,21,6.50
2015,08,31,11,22,6.30
2015,08,31,11,23,5.60
2015,08,31,11,24,4.80
2015,08,31,11,25,3.80
2015,08,31,11,26,3.90
2015,08,31,11,27,4.30
2015,08,31,11,28,5.10
2015,08,31,11,29,6.20
2015,08,31,11,30,6.50
2015,08,31,11,31,7.00
2015,08,31,11,32,8.00
2015,08,31,11,33,8.10
2015,08,31,11,34,7.80
2015,08,31,11,35,7.20
2015,08,31,11,36,7.80
2015,08,31,11,37,8.40
2015,08,31,11,38,8.20
2015,08,31,11,39,8.10
2015,08,31,11,40,8.50
2015,08,31,11,41,10.50
2015,08,31,11,42,11.40
2015,08,31,11,43,11.80
2015,08,31,11,44,12.00
2015,08,31,11,45,10.30
2015,08,31,11,46,9.00
2015,08,31,11,47,9.10
2015,08,31,11,48,9.10
2015,08,31,11,49,9.10
2015,08,31,11,50,9.70
2015,08,31,11,51,10.30
2015,08,31,11,52,10.80
2015,08,31,11,53,12.50
2015,08,31,11,54,12.70
2015,08,31,11,55,12.50
2015,08,31,11,56,12.60
2015,08,31,11,57,13.80
2015,08,31,11,58,15.60
2015,08,31,11,59,16.20
2015,08,31,12,00,15.20
2015,08,31,12,01,14.10
2015,08,31,12,02,13.50
2015,08,31,12,03,14.50
2015,08,31,12,04,14.60
2015,08,31,12,05,13.90
2015,08,31,12,06,13.30
2015,08,31,12,07,13.50
2015,08,31,12,08,14.80
2015,08,31,12,09,15.60
2015,08,31,12,10,16.20
2015,08,31,12,11,16.00
2015,08,31,12,12,15.80
2015,08,31,12,13,14.10
2015,08,31,12,14,14.20
2015,08,31,12,15,14.00
2015,08,31,12,16,14.50
2015,08,31,12,17,15.10
2015,08,31,12,18,15.60
2015,08,31,12,19,15.30
2015,08,31,12,20,15.40
2015,08,31,12,21,15.30
2015,08,31,12,22,14.40
2015,08,31,12,23,12.30
2015,08,31,12,24,12.20
2015,08,31,12,25,12.10
2015,08,31,12,26,11.80
2015,08,31,12,27,12.50
2015,08,31,12,28,14.20
2015,08,31,12,29,14.20
2015,08,31,12,30,13.20
2015,08,31,12,31,12.50
2015,08,31,12,32,11.80
2015,08,31,12,33,11.20
2015,08,31,12,34,10.90
2015,08,31,12,35,9.90
2015,08,31,12,36,10.50
2015,08,31,12,37,10.90
2015,08,31,12,38,10.80
2015,08,31,12,39,10.30
2015,08,31,12,40,10.00
2015,08,31,12,41,9.70
2015,08,31,12,42,9.70
2015,08,31,12,43,9.80
2015,08,31,12,44,10.80
2015,08,31,12,45,11.40
2015,08,31,12,46,11.10
2015,08,31,12,47,10.80
2015,08,31,12,48,10.50
2015,08,31,12,49,10.30
2015,08,31,12,50,9.00
2015,08,31,12,51,7.80
2015,08,31,12,52,7.00
2015,08,31,12,53,6.10
2015,08,31,12,54,7.70
2015,08,31,12,55,9.60
2015,08,31,12,56,11.50
2015,08,31,12,57,12.50
2015,08,31,12,58,12.00
2015,08,31,12,59,12.50
2015,08,31,13,00,12.70
2015,08,31,13,01,11.60
2015,08,31,13,02,12.40
2015,08,31,13,03,13.00
2015,08,31,13,04,13.60
2015,08,31,13,05,14.10
2015,08,31,13,06,13.30
2015,08,31,13,07,12.00
2015,08,31,13,08,11.30
2015,08,31,13,09,12.30
2015,08,31,13,10,13.00
2015,08,31,13,11,13.10
2015,08,31,13,12,13.30
2015,08,31,13,13,12.70
2015,08,31,13,14,12.90
2015,08,31,13,15,11.60
2015,08,31,13,16,10.80
2015,08,31,13,17,11.30
2015,08,31,13,18,12.30
2015,08,31,13,19,13.30
2015,08,31,13,20,13.90
2015,08,31,13,21,13.40
2015,08,31,13,22,13.40
2015,08,31,13,23,13.00
2015,08,31,13,24,12.80
2015,08,31,13,25,13.70
2015,08,31,13,26,13.50
2015,08,31,13,27,14.20
2015,08,31,13,28,14.20
2015,08,31,13,29,13.70
2015,08,31,13,30,13.70
2015,08,31,13,31,13.10
2015,08,31,13,32,12.60
2015,08,31,13,33,10.40
2015,08,31,13,34,9.60
2015,08,31,13,35,9.80
2015,08,31,13,36,8.40
2015,08,31,13,37,7.60
2015,08,31,13,38,7.70
2015,08,31,13,39,7.90
2015,08,31,13,40,8.00
2015,08,31,13,41,10.30
2015,08,31,13,42,11.00
2015,08,31,13,43,9.70
2015,08,31,13,44,7.80
2015,08,31,13,45,8.40
2015,08,31,13,46,9.50
2015,08,31,13,47,9.80
2015,08,31,13,48,8.20
2015,08,31,13,49,7.10
2015,08,31,13,50,10.80
2015,08,31,13,51,12.60
2015,08,31,13,52,10.70
2015,08,31,13,53,8.10
2015,08,31,13,54,6.00
2015,08,31,13,55,6.20
2015,08,31,13,56,10.30
2015,08,31,13,57,9.30
2015,08,31,14,00,8.00
2015,08,31,14,01,7.70
2015,08,31,14,02,6.80
2015,08,31,14,03,8.30
2015,08,31,14,04,8.10
2015,08,31,14,05,7.10
2015,08,31,14,06,9.70
2015,08,31,14,07,12.00
2015,08,31,14,08,12.60
2015,08,31,14,09,11.60
2015,08,31,14,10,11.30
2015,08,31,14,11,12.00
2015,08,31,14,12,10.90
2015,08,31,14,13,12.60
2015,08,31,14,14,12.10
2015,08,31,14,15,10.50
2015,08,31,14,16,10.70
2015,08,31,14,17,10.00
2015,08,31,14,18,11.00
2015,08,31,14,19,12.20
2015,08,31,14,20,10.90
2015,08,31,14,21,9.40
2015,08,31,14,22,8.80
2015,08,31,14,23,9.50
2015,08,31,14,24,11.10
2015,08,31,14,25,10.50
2015,08,31,14,26,12.50
2015,08,31,14,27,11.30
2015,08,31,14,28,13.40
2015,08,31,14,29,14.50
2015,08,31,14,30,15.80
2015,08,31,14,31,13.50
2015,08,31,14,32,13.80
2015,08,31,14,33,13.40
2015,08,31,14,34,14.70
2015,08,31,14,35,15.10
2015,08,31,14,36,16.10
2015,08,31,14,37,16.90
2015,08,31,14,38,17.90
2015,08,31,14,39,15.80
2015,08,31,14,40,17.30
2015,08,31,14,41,17.90
2015,08,31,14,42,18.20
2015,08,31,14,43,19.10
2015,08,31,14,44,18.50
2015,08,31,14,45,18.50
2015,08,31,14,46,20.10
2015,08,31,14,47,19.10
2015,08,31,14,48,19.20
2015,08,31,14,49,20.00
2015,08,31,14,50,21.30
2015,08,31,14,51,20.70
2015,08,31,14,52,21.20
2015,08,31,14,53,23.60
2015,08,31,14,54,24.80
2015,08,31,14,55,24.60
2015,08,31,14,56,25.20
2015,08,31,14,57,26.40
2015,08,31,14,58,27.00
2015,08,31,14,59,26.40
2015,08,31,15,00,26.40
2015,08,31,15,01,26.90
2015,08,31,15,02,27.90
2015,08,31,15,03,29.40
2015,08,31,15,04,30.70
2015,08,31,15,05,30.30
2015,08,31,15,06,31.30
2015,08,31,15,07,31.00
2015,08,31,15,08,30.20
2015,08,31,15,09,31.10
2015,08,31,15,10,32.50
2015,08,31,15,11,33.50
2015,08,31,15,12,34.60
2015,08,31,15,13,35.30
2015,08,31,15,14,35.50
2015,08,31,15,15,35.40
2015,08,31,15,16,35.50
2015,08,31,15,17,35.50
2015,08,31,15,18,35.20
2015,08,31,15,19,34.40
2015,08,31,15,20,35.00
2015,08,31,15,21,34.90
2015,08,31,15,22,35.00
2015,08,31,15,23,34.30
2015,08,31,15,24,34.40
2015,08,31,15,25,33.90
2015,08,31,15,26,33.50
2015,08,31,15,27,30.70
2015,08,31,15,28,28.30
2015,08,31,15,29,27.90
2015,08,31,15,30,29.00
2015,08,31,15,31,28.40
2015,08,31,15,32,28.80
2015,08,31,15,33,28.40
2015,08,31,15,34,29.50
2015,08,31,15,35,30.10
2015,08,31,15,36,29.20
2015,08,31,15,37,29.10
2015,08,31,15,38,29.20
2015,08,31,15,39,29.40
2015,08,31,15,40,29.90
2015,08,31,15,41,29.70
2015,08,31,15,42,29.00
2015,08,31,15,43,30.30
2015,08,31,15,44,29.80
2015,08,31,15,45,29.40
2015,08,31,15,46,30.30
2015,08,31,15,47,29.20
2015,08,31,15,48,28.00
2015,08,31,15,49,28.10
2015,08,31,15,50,27.70
2015,08,31,15,51,28.30
2015,08,31,15,52,25.40
2015,08,31,15,53,26.30
2015,08,31,15,54,26.00
2015,08,31,15,55,23.70
2015,08,31,15,56,23.50
2015,08,31,15,57,22.90
2015,08,31,15,58,23.00
2015,08,31,15,59,22.70
2015,08,31,16,00,21.60
2015,08,31,16,01,21.60
2015,08,31,16,02,21.20
2015,08,31,16,03,23.40
2015,08,31,16,04,22.00
2015,08,31,16,05,22.70
2015,08,31,16,06,22.70
2015,08,31,16,07,22.60
2015,08,31,16,08,21.80
2015,08,31,16,09,22.50
2015,08,31,16,10,22.20
2015,08,31,16,11,22.70
2015,08,31,16,12,22.90
2015,08,31,16,13,22.50
2015,08,31,16,14,24.40
2015,08,31,16,15,23.80
2015,08,31,16,16,25.10
2015,08,31,16,17,25.80
2015,08,31,16,18,27.30
2015,08,31,16,19,27.60
2015,08,31,16,20,26.80
2015,08,31,16,21,27.60
2015,08,31,16,22,28.30
2015,08,31,16,23,28.70
2015,08,31,16,24,28.10
2015,08,31,16,25,27.80
2015,08,31,16,26,26.90
2015,08,31,16,27,26.90
2015,08,31,16,28,25.70
2015,08,31,16,29,25.50
2015,08,31,16,30,25.40
2015,08,31,16,31,26.30
2015,08,31,16,32,27.00
2015,08,31,16,33,27.90
2015,08,31,16,34,28.10
2015,08,31,16,35,28.10
2015,08,31,16,36,27.90
2015,08,31,16,37,27.60
2015,08,31,16,38,27.40
2015,08,31,16,39,28.40
2015,08,31,16,40,28.10
2015,08,31,16,41,28.20
2015,08,31,16,42,28.70
2015,08,31,16,43,28.00
2015,08,31,16,44,27.60
2015,08,31,16,45,28.70
2015,08,31,16,46,28.70
2015,08,31,16,47,29.20
2015,08,31,16,48,30.60
2015,08,31,16,49,31.50
2015,08,31,16,50,31.80
2015,08,31,16,51,31.60
2015,08,31,16,52,30.40
2015,08,31,16,53,29.70
2015,08,31,16,54,25.30
2015,08,31,16,55,23.50
2015,08,31,16,56,23.70
2015,08,31,16,57,24.80
2015,08,31,16,58,23.40
2015,08,31,16,59,24.00
2015,08,31,17,00,25.20
2015,08,31,17,01,25.60
2015,08,31,17,02,23.20
2015,08,31,17,03,23.50
2015,08,31,17,04,24.20
2015,08,31,17,05,24.50
2015,08,31,17,06,23.30
2015,08,31,17,07,24.10
2015,08,31,17,08,23.20
2015,08,31,17,09,23.70
2015,08,31,17,10,24.10
2015,08,31,17,11,24.20
2015,08,31,17,12,23.30
2015,08,31,17,13,23.30
2015,08,31,17,14,23.50
2015,08,31,17,15,23.00
2015,08,31,17,16,22.50
2015,08,31,17,17,23.70
2015,08,31,17,18,25.00
2015,08,31,17,19,25.10
2015,08,31,17,20,25.20
2015,08,31,17,21,26.10
2015,08,31,17,22,25.50
2015,08,31,17,23,25.40
2015,08,31,17,24,25.30
2015,08,31,17,25,25.50
2015,08,31,17,26,26.20
2015,08,31,17,27,25.70
2015,08,31,17,28,25.80
2015,08,31,17,29,22.90
2015,08,31,17,30,23.50
2015,08,31,17,31,22.50
2015,08,31,17,32,22.80
2015,08,31,17,33,24.10
2015,08,31,17,34,23.70
2015,08,31,17,35,23.90
2015,08,31,17,36,24.50